When you browse on this site, cookies collect data to enhance your experience and personalize the content and advertising you see.
Visit our Privacy Policy to learn more. By continuing to use the site, you agree to this use of cookies and data.
  • In Portugal
  • List of Countries
  • For 7 days
  • Water Temperature
  • Satellite Maps
  • Weather Map
  • Weather Widgets
  • user-avatar
    Login

    Hourly Weather Roslavka

    Today, 17 November, Saturday

    Time Temperature Precipitation Wind Pressure Humidity
    00:00 -6°C° 0 mm 1 mps 752 mmHg 58%
    01:00 -6°C° 0 mm 1 mps 752 mmHg 59%
    02:00 -6°C° 0 mm 1 mps 752 mmHg 59%
    03:00 -6°C° 0 mm 0 mps 752 mmHg 60%
    04:00 -6°C° 0 mm 1 mps 752 mmHg 61%
    05:00 -6°C° 0 mm 1 mps 752 mmHg 63%
    06:00 -6°C° 0 mm 1 mps 752 mmHg 65%
    07:00 -6°C° 0 mm 2 mps 752 mmHg 59%
    08:00 -6°C° 0 mm 2 mps 752 mmHg 54%
    09:00 -5°C° 0 mm 2 mps 752 mmHg 50%
    10:00 -5°C° 0 mm 3 mps 752 mmHg 46%
    11:00 -4°C° 0 mm 3 mps 751 mmHg 42%
    12:00 -2°C° 0 mm 3 mps 751 mmHg 37%
    13:00 -2°C° 0 mm 3 mps 751 mmHg 38%
    14:00 -1°C° 0 mm 3 mps 751 mmHg 38%
    15:00 -1°C° 0 mm 2 mps 750 mmHg 39%
    16:00 -2°C° 0 mm 2 mps 751 mmHg 44%
    17:00 -4°C° 0 mm 2 mps 751 mmHg 50%
    18:00 -3°C° 0 mm 1 mps 751 mmHg 55%
    19:00 -3°C° 0 mm 1 mps 751 mmHg 56%
    20:00 -3°C° 0 mm 1 mps 752 mmHg 58%
    21:00 -3°C° 0 mm 1 mps 751 mmHg 59%
    22:00 -3°C° 0 mm 1 mps 751 mmHg 60%
    23:00 -4°C° 0 mm 0 mps 751 mmHg 61%

    Tomorrow, 18 November, Sunday

    Time Temperature Precipitation Wind Pressure Humidity
    00:00 -4°C° 0 mm 0 mps 751 mmHg 62%
    01:00 -4°C° 0 mm 0 mps 751 mmHg 63%
    02:00 -4°C° 0 mm 0 mps 751 mmHg 64%
    03:00 -5°C° 0 mm 0 mps 751 mmHg 66%
    04:00 -5°C° 0 mm 0 mps 751 mmHg 67%
    05:00 -5°C° 0 mm 0 mps 751 mmHg 68%
    06:00 -5°C° 0 mm 0 mps 751 mmHg 69%
    07:00 -4°C° 0 mm 0 mps 751 mmHg 65%
    08:00 -3°C° 0 mm 0 mps 751 mmHg 61%
    09:00 -2°C° 0 mm 0 mps 751 mmHg 57%
    10:00 -1°C° 0 mm 0 mps 751 mmHg 52%
    11:00 +1°C° 0 mm 1 mps 751 mmHg 48%
    12:00 +2°C° 0 mm 1 mps 751 mmHg 43%
    13:00 +2°C° 0 mm 1 mps 750 mmHg 44%
    14:00 +2°C° 0 mm 1 mps 750 mmHg 44%
    15:00 +1°C° 0 mm 1 mps 750 mmHg 45%
    16:00 0°C° 0 mm 1 mps 750 mmHg 51%
    17:00 -1°C° 0 mm 1 mps 750 mmHg 57%
    18:00 -4°C° 0 mm 0 mps 750 mmHg 63%
    19:00 -4°C° 0 mm 0 mps 750 mmHg 63%
    20:00 -4°C° 0 mm 0 mps 750 mmHg 63%
    21:00 -4°C° 0 mm 0 mps 750 mmHg 64%
    22:00 -4°C° 0 mm 0 mps 750 mmHg 64%
    23:00 -4°C° 0 mm 0 mps 750 mmHg 64%

    Day after tomorrow, 19 November, Monday

    Time Temperature Precipitation Wind Pressure Humidity
    00:00 -4°C° 0 mm 0 mps 749 mmHg 64%
    01:00 -5°C° 0 mm 0 mps 749 mmHg 64%
    02:00 -5°C° 0 mm 0 mps 749 mmHg 64%
    03:00 -5°C° 0 mm 0 mps 749 mmHg 64%
    04:00 -5°C° 0 mm 0 mps 749 mmHg 65%
    05:00 -5°C° 0 mm 0 mps 749 mmHg 65%
    06:00 -5°C° 0 mm 0 mps 749 mmHg 65%
    07:00 -4°C° 0 mm 0 mps 749 mmHg 61%
    08:00 -3°C° 0 mm 0 mps 750 mmHg 57%
    09:00 -2°C° 0 mm 0 mps 750 mmHg 53%
    10:00 0°C° 0 mm 1 mps 750 mmHg 51%
    11:00 +1°C° 0 mm 1 mps 750 mmHg 49%
    12:00 -1°C° 0 mm 2 mps 750 mmHg 47%
    13:00 -1°C° 0 mm 2 mps 750 mmHg 51%
    14:00 -1°C° 0 mm 3 mps 750 mmHg 55%
    15:00 -2°C° 0 mm 3 mps 750 mmHg 59%
    16:00 -2°C° 0 mm 2 mps 751 mmHg 63%
    17:00 -3°C° 0 mm 2 mps 751 mmHg 67%
    18:00 -4°C° 0 mm 2 mps 752 mmHg 71%
    19:00 -3°C° 0 mm 1 mps 752 mmHg 71%
    20:00 -3°C° 0 mm 1 mps 753 mmHg 71%
    21:00 -3°C° 0 mm 1 mps 753 mmHg 70%
    22:00 -4°C° 0 mm 1 mps 753 mmHg 68%
    23:00 -4°C° 0 mm 1 mps 753 mmHg 66%

    20 November, Tuesday

    Time Temperature Precipitation Wind Pressure Humidity
    00:00 -4°C° 0 mm 1 mps 753 mmHg 64%
    01:00 -6°C° 0 mm 1 mps 753 mmHg 64%
    02:00 -6°C° 0 mm 0 mps 753 mmHg 63%
    03:00 -6°C° 0 mm 0 mps 753 mmHg 63%
    04:00 -6°C° 0 mm 0 mps 753 mmHg 64%
    05:00 -7°C° 0 mm 0 mps 753 mmHg 64%
    06:00 -7°C° 0 mm 0 mps 753 mmHg 64%
    07:00 -6°C° 0 mm 0 mps 753 mmHg 60%
    08:00 -4°C° 0 mm 1 mps 753 mmHg 56%
    09:00 -3°C° 0 mm 1 mps 754 mmHg 52%
    10:00 -2°C° 0 mm 1 mps 753 mmHg 48%
    11:00 -3°C° 0 mm 2 mps 752 mmHg 44%
    12:00 -2°C° 0 mm 2 mps 752 mmHg 40%
    13:00 -1°C° 0 mm 2 mps 751 mmHg 41%
    14:00 -1°C° 0 mm 2 mps 751 mmHg 41%
    15:00 -1°C° 0 mm 2 mps 751 mmHg 41%
    16:00 -1°C° 0 mm 2 mps 751 mmHg 46%
    17:00 -2°C° 0 mm 2 mps 751 mmHg 51%
    18:00 -1°C° 0 mm 1 mps 751 mmHg 56%
    19:00 -3°C° 0.1 mm 2 mps 751 mmHg 62%
    20:00 -3°C° 0.1 mm 2 mps 751 mmHg 68%
    21:00 -4°C° 0.1 mm 2 mps 751 mmHg 74%
    22:00 -5°C° 0.2 mm 3 mps 751 mmHg 72%
    23:00 -6°C° 0.2 mm 3 mps 751 mmHg 70%

    21 November, Wednesday

    Time Temperature Precipitation Wind Pressure Humidity
    00:00 -8°C° 0.2 mm 4 mps 752 mmHg 67%
    01:00 -7°C° 0 mm 3 mps 752 mmHg 65%
    02:00 -8°C° 0 mm 3 mps 752 mmHg 63%
    03:00 -9°C° 0 mm 3 mps 753 mmHg 60%
    04:00 -9°C° 0 mm 3 mps 753 mmHg 60%
    05:00 -10°C° 0 mm 3 mps 753 mmHg 60%
    06:00 -10°C° 0 mm 3 mps 753 mmHg 59%
    07:00 -10°C° 0 mm 3 mps 753 mmHg 57%
    08:00 -10°C° 0 mm 3 mps 754 mmHg 55%
    09:00 -10°C° 0 mm 3 mps 754 mmHg 53%
    10:00 -10°C° 0 mm 3 mps 754 mmHg 48%
    11:00 -9°C° 0 mm 3 mps 753 mmHg 43%
    12:00 -8°C° 0 mm 3 mps 753 mmHg 38%
    13:00 -8°C° 0 mm 3 mps 753 mmHg 37%
    14:00 -7°C° 0 mm 2 mps 753 mmHg 37%
    15:00 -7°C° 0 mm 2 mps 752 mmHg 37%
    16:00 -7°C° 0 mm 2 mps 752 mmHg 41%
    17:00 -7°C° 0 mm 1 mps 752 mmHg 45%
    18:00 -7°C° 0 mm 1 mps 752 mmHg 49%
    19:00 -8°C° 0 mm 1 mps 752 mmHg 50%
    20:00 -8°C° 0 mm 1 mps 752 mmHg 51%
    21:00 -8°C° 0 mm 1 mps 752 mmHg 52%
    22:00 -8°C° 0 mm 1 mps 752 mmHg 52%
    23:00 -8°C° 0 mm 1 mps 752 mmHg 52%

    22 November, Thursday

    Time Temperature Precipitation Wind Pressure Humidity
    00:00 -9°C° 0 mm 2 mps 751 mmHg 53%
    01:00 -9°C° 0 mm 2 mps 751 mmHg 53%
    02:00 -9°C° 0 mm 2 mps 750 mmHg 54%
    03:00 -9°C° 0 mm 2 mps 750 mmHg 55%
    04:00 -9°C° 0 mm 2 mps 749 mmHg 55%
    05:00 -9°C° 0 mm 2 mps 749 mmHg 56%
    06:00 -9°C° 0 mm 2 mps 748 mmHg 57%
    07:00 -8°C° 0 mm 2 mps 748 mmHg 53%
    08:00 -8°C° 0 mm 3 mps 748 mmHg 50%
    09:00 -7°C° 0 mm 3 mps 747 mmHg 46%
    10:00 -7°C° 0 mm 4 mps 747 mmHg 44%
    11:00 -5°C° 0 mm 4 mps 746 mmHg 41%
    12:00 -5°C° 0 mm 5 mps 746 mmHg 39%
    13:00 -5°C° 0 mm 5 mps 746 mmHg 38%
    14:00 -6°C° 0 mm 5 mps 745 mmHg 36%
    15:00 -6°C° 0 mm 6 mps 745 mmHg 35%
    16:00 -7°C° 0.1 mm 5 mps 746 mmHg 42%
    17:00 -8°C° 0.1 mm 5 mps 747 mmHg 49%
    18:00 -10°C° 0.1 mm 5 mps 747 mmHg 56%
    19:00 -10°C° 0.1 mm 5 mps 748 mmHg 59%
    20:00 -11°C° 0.1 mm 5 mps 749 mmHg 61%
    21:00 -12°C° 0.1 mm 5 mps 749 mmHg 64%
    22:00 -13°C° 0 mm 5 mps 750 mmHg 61%
    23:00 -13°C° 0 mm 5 mps 750 mmHg 58%
    Show more